Flag for Australia Weather past 2 weeks in Eucla, Western Australia, Australia

Now
89 °F

Hot.


Feels Like: 85 °F
Forecast: 62 / 83 °F
Wind: 20 mph from North

Location: Eucla Amo

Current Time: Aug 29, 2014 at 2:19:59 PM

Latest Report: Aug 29, 2014 at 12:45 PM


Visibility: N/A

Pressure: 30.02 "Hg

Humidity: 8%

Dew point: 20 °F

Location of EuclaLocation

Historic Weather in Eucla — Graph

°F

Eucla temperature yesterday

Maximum temperature yesterday: 85 °F (at 2:45 PM)
Minimum temperature yesterday: 51 °F (at 6:45 AM)
Average temperature yesterday: 69 °F

Past Weeks' High & Low Weather Summary

 TemperatureHumidityPressure
High89 °F (Aug 29, 12:45 PM)98% (Aug 16, 3:45 AM)30.53 "Hg (Aug 16, 3:45 AM)
Low39 °F (Aug 17, 6:45 AM)8% (Aug 28, 2:45 PM)29.93 "Hg (Aug 21, 2:45 PM)
Average58 °F57%30.21 "Hg
* Reported Aug 14 12:45 PM — Aug 29 12:45 PM, Eucla, Weather by CustomWeather, © 2014

Note: Actual official high and low records may vary slightly from our data, if they occured in-between our weather recording intervals... More about our weather records

Advertising

Eucla weather history for previous 24 hours

 ConditionsComfort  
Time TempWeatherWind HumidityBarometerVisibility
12:45 PM
Aug 29
89 °FHot.20 mph8%30.02 "HgN/A
11:45 AM85 °FPleasantly warm.22 mph9%30.05 "HgN/A
9:45 AM76 °FScattered clouds.20 mph13%30.09 "Hg25 mi
8:45 AM70 °FMild.21 mph16%30.09 "HgN/A
6:45 AM61 °FRefreshingly cool.20 mph21%30.08 "HgN/A
5:45 AM61 °FRefreshingly cool.21 mph21%30.08 "HgN/A
3:45 AM63 °FMild.18 mph19%30.05 "HgN/A
2:45 AM62 °FRefreshingly cool.18 mph19%30.06 "HgN/A
12:45 AM64 °FMild.16 mph18%30.09 "HgN/A
11:45 PM
Aug 28
65 °FMild.15 mph19%30.10 "HgN/A
9:45 PM68 °FMild.14 mph17%30.12 "HgN/A
8:45 PM69 °FMild.13 mph17%30.12 "HgN/A
6:45 PM73 °FMild.10 mph15%30.11 "HgN/A
5:45 PM78 °FPleasantly warm.8 mph12%30.09 "HgN/A
3:45 PM84 °FPassing clouds.13 mph9%30.08 "Hg25 mi
2:45 PM85 °FPleasantly warm.15 mph8%30.09 "HgN/A
Weather by CustomWeather, © 2014

See weather overviewHow to use our weather pages